Terminal Aerodrome Forecast
Issued by NWS Burlington, VT

Home | Current Version | Previous Version | Text Only | Print | Product List | Glossary On
Versions: 1 2 3 4 5 6 7 8 9 10 11 12 13 14 15 16 17 18 19
000
FTUS41 KBTV 011300 AAA
TAFBTV
TAF AMD
KBTV 011336Z 0114/0212 18010KT P6SM FEW070
     FM011600 20010G20KT P6SM SCT070
     FM012300 17006KT P6SM SCT050=

USA.gov is the U.S. government's official web portal to all federal, state and local government web resources and services.